Location: Hains Lake
(37.8540°N, 99.8578°W)
Time: 23:01:21
(UTC+00:00)

Vanguard 2 Rocket - Pass Details

Date: 18 April 2021
Orbit: 553 x 3326 km, 32.9° (Epoch: 06 May)

Event Time Altitude Azimuth Distance (km) Brightness Sun altitude
Rises 22:49:34 0° 265° (W) 7,130 12.7 28.3°
Reaches altitude 10° 22:54:11 10° 264° (W) 6,229 13.0 27.4°
Maximum altitude 23:14:41 75° 184° (S) 3,129 10.0 23.4°
Drops below altitude 10° 23:29:55 10° 102° (ESE) 4,832 10.1 20.3°
Sets 23:33:00 0° 101° (E) 5,532 10.3 19.7°
